owner,sensor,date,latitude,longitude,relative_humidity,qcFlag 
COMPS,ioos:station:USF.COMPS:C13:1,2017-05-01T00:05:00Z,26.0630,-83.0730,82.57,1111122 
COMPS,ioos:station:USF.COMPS:C13:1,2017-05-01T00:35:00Z,26.0630,-83.0730,82.81,1111122 
COMPS,ioos:station:USF.COMPS:C13:1,2017-05-01T01:05:00Z,26.0630,-83.0730,83.02,1111122 
COMPS,ioos:station:USF.COMPS:C13:1,2017-05-01T01:35:00Z,26.0630,-83.0730,81.52,1111122 
COMPS,ioos:station:USF.COMPS:C13:1,2017-05-01T02:05:00Z,26.0630,-83.0730,81.76,1111122 
COMPS,ioos:station:USF.COMPS:C13:1,2017-05-01T02:35:00Z,26.0630,-83.0730,81.03,1111122 
COMPS,ioos:station:USF.COMPS:C13:1,2017-05-01T03:05:00Z,26.0630,-83.0730,80.73,1111122 
COMPS,ioos:station:USF.COMPS:C13:1,2017-05-01T03:35:00Z,26.0630,-83.0730,80.89,1111122 
COMPS,ioos:station:USF.COMPS:C13:1,2017-05-01T04:05:00Z,26.0630,-83.0730,81.02,1111122 
COMPS,ioos:station:USF.COMPS:C13:1,2017-05-01T04:35:00Z,26.0630,-83.0730,78.59,1111122 
COMPS,ioos:station:USF.COMPS:C13:1,2017-05-01T05:05:00Z,26.0630,-83.0730,78.96,1111122 
COMPS,ioos:station:USF.COMPS:C13:1,2017-05-01T05:35:00Z,26.0630,-83.0730,81.51,1111122 
COMPS,ioos:station:USF.COMPS:C13:1,2017-05-01T06:05:00Z,26.0630,-83.0730,83.16,1111122 
COMPS,ioos:station:USF.COMPS:C13:1,2017-05-01T06:35:00Z,26.0630,-83.0730,84.69,1111122 
COMPS,ioos:station:USF.COMPS:C13:1,2017-05-01T07:05:00Z,26.0630,-83.0730,86.1,1111122 
COMPS,ioos:station:USF.COMPS:C13:1,2017-05-01T07:35:00Z,26.0630,-83.0730,87.25,1111122 
COMPS,ioos:station:USF.COMPS:C13:1,2017-05-01T08:05:00Z,26.0630,-83.0730,86.58,1111122 
COMPS,ioos:station:USF.COMPS:C13:1,2017-05-01T08:35:00Z,26.0630,-83.0730,84.8,1111122 
COMPS,ioos:station:USF.COMPS:C13:1,2017-05-01T09:05:00Z,26.0630,-83.0730,84.18,1111122 
COMPS,ioos:station:USF.COMPS:C13:1,2017-05-01T09:35:00Z,26.0630,-83.0730,84.05,1111122 
COMPS,ioos:station:USF.COMPS:C13:1,2017-05-01T10:05:00Z,26.0630,-83.0730,85.17,1111122 
COMPS,ioos:station:USF.COMPS:C13:1,2017-05-01T10:35:00Z,26.0630,-83.0730,86.1,1111122 
COMPS,ioos:station:USF.COMPS:C13:1,2017-05-01T11:05:00Z,26.0630,-83.0730,85.67,1111122 
COMPS,ioos:station:USF.COMPS:C13:1,2017-05-01T11:35:00Z,26.0630,-83.0730,84.71,1111122 
COMPS,ioos:station:USF.COMPS:C13:1,2017-05-01T12:05:00Z,26.0630,-83.0730,84.45,1111122 
COMPS,ioos:station:USF.COMPS:C13:1,2017-05-01T12:35:00Z,26.0630,-83.0730,83.58,1111122 
COMPS,ioos:station:USF.COMPS:C13:1,2017-05-01T13:05:00Z,26.0630,-83.0730,84.23,1111122 
COMPS,ioos:station:USF.COMPS:C13:1,2017-05-01T13:35:00Z,26.0630,-83.0730,85.2,1111122 
COMPS,ioos:station:USF.COMPS:C13:1,2017-05-01T14:05:00Z,26.0630,-83.0730,85.15,1111122 
COMPS,ioos:station:USF.COMPS:C13:1,2017-05-01T14:35:00Z,26.0630,-83.0730,85.44,1111122 
COMPS,ioos:station:USF.COMPS:C13:1,2017-05-01T15:05:00Z,26.0630,-83.0730,85.68,1111122 
COMPS,ioos:station:USF.COMPS:C13:1,2017-05-01T15:35:00Z,26.0630,-83.0730,86.44,1111122 
COMPS,ioos:station:USF.COMPS:C13:1,2017-05-01T16:05:00Z,26.0630,-83.0730,86.81,1111122 
COMPS,ioos:station:USF.COMPS:C13:1,2017-05-01T16:35:00Z,26.0630,-83.0730,87.04,1111122 
COMPS,ioos:station:USF.COMPS:C13:1,2017-05-01T17:05:00Z,26.0630,-83.0730,86.88,1111122 
COMPS,ioos:station:USF.COMPS:C13:1,2017-05-01T17:35:00Z,26.0630,-83.0730,86.82,1111122 
COMPS,ioos:station:USF.COMPS:C13:1,2017-05-01T18:05:00Z,26.0630,-83.0730,86.36,1111122 
COMPS,ioos:station:USF.COMPS:C13:1,2017-05-01T18:35:00Z,26.0630,-83.0730,86.04,1111122 
COMPS,ioos:station:USF.COMPS:C13:1,2017-05-01T19:05:00Z,26.0630,-83.0730,85.95,1111122 
COMPS,ioos:station:USF.COMPS:C13:1,2017-05-01T19:35:00Z,26.0630,-83.0730,85.64,1111122 
COMPS,ioos:station:USF.COMPS:C13:1,2017-05-01T20:05:00Z,26.0630,-83.0730,85.35,1111122 
COMPS,ioos:station:USF.COMPS:C13:1,2017-05-01T20:35:00Z,26.0630,-83.0730,85.5,1111122 
COMPS,ioos:station:USF.COMPS:C13:1,2017-05-01T21:05:00Z,26.0630,-83.0730,85.44,1111122 
COMPS,ioos:station:USF.COMPS:C13:1,2017-05-01T21:35:00Z,26.0630,-83.0730,85.28,1111122 
COMPS,ioos:station:USF.COMPS:C13:1,2017-05-01T22:05:00Z,26.0630,-83.0730,84.45,1111122 
COMPS,ioos:station:USF.COMPS:C13:1,2017-05-01T22:35:00Z,26.0630,-83.0730,85.06,1111122 
COMPS,ioos:station:USF.COMPS:C13:1,2017-05-01T23:05:00Z,26.0630,-83.0730,85.7,1111122 
COMPS,ioos:station:USF.COMPS:C13:1,2017-05-01T23:35:00Z,26.0630,-83.0730,86.37,1111122 
COMPS,ioos:station:USF.COMPS:C13:1,2017-05-02T00:05:00Z,26.0630,-83.0730,85.91,1111122 
COMPS,ioos:station:USF.COMPS:C13:1,2017-05-02T00:35:00Z,26.0630,-83.0730,85.53,1111122 
COMPS,ioos:station:USF.COMPS:C13:1,2017-05-02T01:05:00Z,26.0630,-83.0730,85.55,1111122 
COMPS,ioos:station:USF.COMPS:C13:1,2017-05-02T01:35:00Z,26.0630,-83.0730,85.07,1111122 
COMPS,ioos:station:USF.COMPS:C13:1,2017-05-02T02:05:00Z,26.0630,-83.0730,85.13,1111122 
COMPS,ioos:station:USF.COMPS:C13:1,2017-05-02T02:35:00Z,26.0630,-83.0730,85.37,1111122 
COMPS,ioos:station:USF.COMPS:C13:1,2017-05-02T03:05:00Z,26.0630,-83.0730,86.24,1111122 
COMPS,ioos:station:USF.COMPS:C13:1,2017-05-02T03:35:00Z,26.0630,-83.0730,86.66,1111122 
COMPS,ioos:station:USF.COMPS:C13:1,2017-05-02T04:05:00Z,26.0630,-83.0730,87.25,1111122 
COMPS,ioos:station:USF.COMPS:C13:1,2017-05-02T04:35:00Z,26.0630,-83.0730,87.71,1111122 
COMPS,ioos:station:USF.COMPS:C13:1,2017-05-02T05:05:00Z,26.0630,-83.0730,88.21,1111122 
COMPS,ioos:station:USF.COMPS:C13:1,2017-05-02T05:35:00Z,26.0630,-83.0730,88.33,1111122 
COMPS,ioos:station:USF.COMPS:C13:1,2017-05-02T06:05:00Z,26.0630,-83.0730,88.63,1111122 
COMPS,ioos:station:USF.COMPS:C13:1,2017-05-02T06:35:00Z,26.0630,-83.0730,88.85,1111122 
COMPS,ioos:station:USF.COMPS:C13:1,2017-05-02T07:05:00Z,26.0630,-83.0730,88.81,1111122 
COMPS,ioos:station:USF.COMPS:C13:1,2017-05-02T07:35:00Z,26.0630,-83.0730,89.05,1111122 
COMPS,ioos:station:USF.COMPS:C13:1,2017-05-02T08:05:00Z,26.0630,-83.0730,89.2,1111122 
COMPS,ioos:station:USF.COMPS:C13:1,2017-05-02T08:35:00Z,26.0630,-83.0730,89.56,1111122 
COMPS,ioos:station:USF.COMPS:C13:1,2017-05-02T09:05:00Z,26.0630,-83.0730,89.8,1111122 
COMPS,ioos:station:USF.COMPS:C13:1,2017-05-02T09:35:00Z,26.0630,-83.0730,90.07,1111122 
COMPS,ioos:station:USF.COMPS:C13:1,2017-05-02T10:05:00Z,26.0630,-83.0730,89.71,1111122 
COMPS,ioos:station:USF.COMPS:C13:1,2017-05-02T10:35:00Z,26.0630,-83.0730,89.0,1111122 
COMPS,ioos:station:USF.COMPS:C13:1,2017-05-02T11:05:00Z,26.0630,-83.0730,88.74,1111122 
COMPS,ioos:station:USF.COMPS:C13:1,2017-05-02T11:35:00Z,26.0630,-83.0730,88.8,1111122 
COMPS,ioos:station:USF.COMPS:C13:1,2017-05-02T12:05:00Z,26.0630,-83.0730,88.13,1111122 
COMPS,ioos:station:USF.COMPS:C13:1,2017-05-02T12:35:00Z,26.0630,-83.0730,87.96,1111122 
COMPS,ioos:station:USF.COMPS:C13:1,2017-05-02T13:05:00Z,26.0630,-83.0730,86.78,1111122 
COMPS,ioos:station:USF.COMPS:C13:1,2017-05-02T13:35:00Z,26.0630,-83.0730,86.92,1111122 
COMPS,ioos:station:USF.COMPS:C13:1,2017-05-02T14:05:00Z,26.0630,-83.0730,87.39,1111122 
COMPS,ioos:station:USF.COMPS:C13:1,2017-05-02T14:35:00Z,26.0630,-83.0730,87.55,1111122 
COMPS,ioos:station:USF.COMPS:C13:1,2017-05-02T15:05:00Z,26.0630,-83.0730,86.98,1111122 
COMPS,ioos:station:USF.COMPS:C13:1,2017-05-02T15:35:00Z,26.0630,-83.0730,86.1,1111122 
COMPS,ioos:station:USF.COMPS:C13:1,2017-05-02T16:05:00Z,26.0630,-83.0730,85.09,1111122 
COMPS,ioos:station:USF.COMPS:C13:1,2017-05-02T16:35:00Z,26.0630,-83.0730,82.9,1111122 
COMPS,ioos:station:USF.COMPS:C13:1,2017-05-02T17:05:00Z,26.0630,-83.0730,82.04,1111122 
COMPS,ioos:station:USF.COMPS:C13:1,2017-05-02T17:35:00Z,26.0630,-83.0730,80.64,1111122 
COMPS,ioos:station:USF.COMPS:C13:1,2017-05-02T18:05:00Z,26.0630,-83.0730,79.12,1111122 
COMPS,ioos:station:USF.COMPS:C13:1,2017-05-02T18:35:00Z,26.0630,-83.0730,76.79,1111122 
COMPS,ioos:station:USF.COMPS:C13:1,2017-05-02T19:05:00Z,26.0630,-83.0730,73.88,1111122 
COMPS,ioos:station:USF.COMPS:C13:1,2017-05-02T19:35:00Z,26.0630,-83.0730,74.41,1111122 
COMPS,ioos:station:USF.COMPS:C13:1,2017-05-02T20:05:00Z,26.0630,-83.0730,73.5,1111122 
COMPS,ioos:station:USF.COMPS:C13:1,2017-05-02T20:35:00Z,26.0630,-83.0730,71.98,1111122 
COMPS,ioos:station:USF.COMPS:C13:1,2017-05-02T21:05:00Z,26.0630,-83.0730,69.43,1111122 
COMPS,ioos:station:USF.COMPS:C13:1,2017-05-02T21:35:00Z,26.0630,-83.0730,69.28,1111122 
COMPS,ioos:station:USF.COMPS:C13:1,2017-05-02T22:05:00Z,26.0630,-83.0730,67.23,1111122 
COMPS,ioos:station:USF.COMPS:C13:1,2017-05-02T22:35:00Z,26.0630,-83.0730,64.37,1111122 
COMPS,ioos:station:USF.COMPS:C13:1,2017-05-02T23:05:00Z,26.0630,-83.0730,71.69,1111122 
COMPS,ioos:station:USF.COMPS:C13:1,2017-05-02T23:35:00Z,26.0630,-83.0730,74.33,1111122 
COMPS,ioos:station:USF.COMPS:C13:1,2017-05-03T00:05:00Z,26.0630,-83.0730,75.77,1111122 
COMPS,ioos:station:USF.COMPS:C13:1,2017-05-03T00:35:00Z,26.0630,-83.0730,75.32,1111122 
COMPS,ioos:station:USF.COMPS:C13:1,2017-05-03T01:05:00Z,26.0630,-83.0730,77.61,1111122 
COMPS,ioos:station:USF.COMPS:C13:1,2017-05-03T01:35:00Z,26.0630,-83.0730,78.09,1111122 
COMPS,ioos:station:USF.COMPS:C13:1,2017-05-03T02:05:00Z,26.0630,-83.0730,77.58,1111122 
COMPS,ioos:station:USF.COMPS:C13:1,2017-05-03T02:35:00Z,26.0630,-83.0730,77.92,1111122 
COMPS,ioos:station:USF.COMPS:C13:1,2017-05-03T03:05:00Z,26.0630,-83.0730,78.89,1111122 
COMPS,ioos:station:USF.COMPS:C13:1,2017-05-03T03:35:00Z,26.0630,-83.0730,82.72,1111122 
COMPS,ioos:station:USF.COMPS:C13:1,2017-05-03T04:05:00Z,26.0630,-83.0730,86.46,1111122 
COMPS,ioos:station:USF.COMPS:C13:1,2017-05-03T04:35:00Z,26.0630,-83.0730,86.34,1111122 
COMPS,ioos:station:USF.COMPS:C13:1,2017-05-03T05:05:00Z,26.0630,-83.0730,83.85,1111122 
COMPS,ioos:station:USF.COMPS:C13:1,2017-05-03T05:35:00Z,26.0630,-83.0730,82.77,1111122 
COMPS,ioos:station:USF.COMPS:C13:1,2017-05-03T06:05:00Z,26.0630,-83.0730,81.66,1111122 
COMPS,ioos:station:USF.COMPS:C13:1,2017-05-03T06:35:00Z,26.0630,-83.0730,82.14,1111122 
COMPS,ioos:station:USF.COMPS:C13:1,2017-05-03T07:05:00Z,26.0630,-83.0730,82.16,1111122 
COMPS,ioos:station:USF.COMPS:C13:1,2017-05-03T07:35:00Z,26.0630,-83.0730,82.02,1111122 
COMPS,ioos:station:USF.COMPS:C13:1,2017-05-03T08:05:00Z,26.0630,-83.0730,82.16,1111122 
COMPS,ioos:station:USF.COMPS:C13:1,2017-05-03T08:35:00Z,26.0630,-83.0730,81.01,1111122 
COMPS,ioos:station:USF.COMPS:C13:1,2017-05-03T09:05:00Z,26.0630,-83.0730,81.01,1111122 
COMPS,ioos:station:USF.COMPS:C13:1,2017-05-03T09:35:00Z,26.0630,-83.0730,81.45,1111122 
COMPS,ioos:station:USF.COMPS:C13:1,2017-05-03T10:05:00Z,26.0630,-83.0730,82.13,1111122 
COMPS,ioos:station:USF.COMPS:C13:1,2017-05-03T10:35:00Z,26.0630,-83.0730,81.99,1111122 
COMPS,ioos:station:USF.COMPS:C13:1,2017-05-03T11:05:00Z,26.0630,-83.0730,81.41,1111122 
COMPS,ioos:station:USF.COMPS:C13:1,2017-05-03T11:35:00Z,26.0630,-83.0730,81.23,1111122 
COMPS,ioos:station:USF.COMPS:C13:1,2017-05-03T12:05:00Z,26.0630,-83.0730,82.48,1111122 
COMPS,ioos:station:USF.COMPS:C13:1,2017-05-03T12:35:00Z,26.0630,-83.0730,83.75,1111122 
COMPS,ioos:station:USF.COMPS:C13:1,2017-05-03T14:05:00Z,26.0630,-83.0730,84.94,1111122 
COMPS,ioos:station:USF.COMPS:C13:1,2017-05-03T14:35:00Z,26.0630,-83.0730,84.89,1111122 
COMPS,ioos:station:USF.COMPS:C13:1,2017-05-03T15:05:00Z,26.0630,-83.0730,82.75,1111122 
COMPS,ioos:station:USF.COMPS:C13:1,2017-05-03T15:35:00Z,26.0630,-83.0730,81.96,1111122 
COMPS,ioos:station:USF.COMPS:C13:1,2017-05-03T16:05:00Z,26.0630,-83.0730,82.78,1111122 
COMPS,ioos:station:USF.COMPS:C13:1,2017-05-03T16:35:00Z,26.0630,-83.0730,81.99,1111122 
COMPS,ioos:station:USF.COMPS:C13:1,2017-05-03T17:05:00Z,26.0630,-83.0730,80.53,1111122 
COMPS,ioos:station:USF.COMPS:C13:1,2017-05-03T17:35:00Z,26.0630,-83.0730,78.63,1111122 
COMPS,ioos:station:USF.COMPS:C13:1,2017-05-03T18:05:00Z,26.0630,-83.0730,79.0,1111122 
COMPS,ioos:station:USF.COMPS:C13:1,2017-05-03T18:35:00Z,26.0630,-83.0730,77.85,1111122 
COMPS,ioos:station:USF.COMPS:C13:1,2017-05-03T19:05:00Z,26.0630,-83.0730,77.08,1111122 
COMPS,ioos:station:USF.COMPS:C13:1,2017-05-03T19:35:00Z,26.0630,-83.0730,77.55,1111122 
COMPS,ioos:station:USF.COMPS:C13:1,2017-05-03T20:05:00Z,26.0630,-83.0730,76.96,1111122 
COMPS,ioos:station:USF.COMPS:C13:1,2017-05-03T20:35:00Z,26.0630,-83.0730,76.04,1111122 
COMPS,ioos:station:USF.COMPS:C13:1,2017-05-03T21:05:00Z,26.0630,-83.0730,75.6,1111122 
COMPS,ioos:station:USF.COMPS:C13:1,2017-05-03T21:35:00Z,26.0630,-83.0730,74.1,1111122 
COMPS,ioos:station:USF.COMPS:C13:1,2017-05-03T22:05:00Z,26.0630,-83.0730,77.2,1111122 
COMPS,ioos:station:USF.COMPS:C13:1,2017-05-03T22:35:00Z,26.0630,-83.0730,77.1,1111122 
COMPS,ioos:station:USF.COMPS:C13:1,2017-05-03T23:05:00Z,26.0630,-83.0730,78.54,1111122 
COMPS,ioos:station:USF.COMPS:C13:1,2017-05-03T23:35:00Z,26.0630,-83.0730,77.63,1111122 
COMPS,ioos:station:USF.COMPS:C13:1,2017-05-04T00:05:00Z,26.0630,-83.0730,79.32,1111122 
COMPS,ioos:station:USF.COMPS:C13:1,2017-05-04T00:35:00Z,26.0630,-83.0730,78.66,1111122 
COMPS,ioos:station:USF.COMPS:C13:1,2017-05-04T01:05:00Z,26.0630,-83.0730,79.19,1111122 
COMPS,ioos:station:USF.COMPS:C13:1,2017-05-04T01:35:00Z,26.0630,-83.0730,79.4,1111122 
COMPS,ioos:station:USF.COMPS:C13:1,2017-05-04T02:05:00Z,26.0630,-83.0730,79.34,1111122 
COMPS,ioos:station:USF.COMPS:C13:1,2017-05-04T02:35:00Z,26.0630,-83.0730,79.31,1111122 
COMPS,ioos:station:USF.COMPS:C13:1,2017-05-04T03:05:00Z,26.0630,-83.0730,77.5,1111122 
COMPS,ioos:station:USF.COMPS:C13:1,2017-05-04T03:35:00Z,26.0630,-83.0730,77.06,1111122 
COMPS,ioos:station:USF.COMPS:C13:1,2017-05-04T04:05:00Z,26.0630,-83.0730,77.19,1111122 
COMPS,ioos:station:USF.COMPS:C13:1,2017-05-04T04:35:00Z,26.0630,-83.0730,77.66,1111122 
COMPS,ioos:station:USF.COMPS:C13:1,2017-05-04T05:05:00Z,26.0630,-83.0730,79.28,1111122 
COMPS,ioos:station:USF.COMPS:C13:1,2017-05-04T05:35:00Z,26.0630,-83.0730,80.17,1111122 
COMPS,ioos:station:USF.COMPS:C13:1,2017-05-04T06:05:00Z,26.0630,-83.0730,80.63,1111122 
COMPS,ioos:station:USF.COMPS:C13:1,2017-05-04T06:35:00Z,26.0630,-83.0730,79.23,1111122 
COMPS,ioos:station:USF.COMPS:C13:1,2017-05-04T07:05:00Z,26.0630,-83.0730,76.22,1111122 
COMPS,ioos:station:USF.COMPS:C13:1,2017-05-04T07:35:00Z,26.0630,-83.0730,78.66,1111122 
COMPS,ioos:station:USF.COMPS:C13:1,2017-05-04T08:05:00Z,26.0630,-83.0730,78.17,1111122 
COMPS,ioos:station:USF.COMPS:C13:1,2017-05-04T08:35:00Z,26.0630,-83.0730,78.86,1111122 
COMPS,ioos:station:USF.COMPS:C13:1,2017-05-04T09:05:00Z,26.0630,-83.0730,79.08,1111122 
COMPS,ioos:station:USF.COMPS:C13:1,2017-05-04T09:35:00Z,26.0630,-83.0730,79.86,1111122 
COMPS,ioos:station:USF.COMPS:C13:1,2017-05-04T10:05:00Z,26.0630,-83.0730,81.76,1111122 
COMPS,ioos:station:USF.COMPS:C13:1,2017-05-04T10:35:00Z,26.0630,-83.0730,78.06,1111122 
COMPS,ioos:station:USF.COMPS:C13:1,2017-05-04T11:05:00Z,26.0630,-83.0730,79.13,1111122 
COMPS,ioos:station:USF.COMPS:C13:1,2017-05-04T11:35:00Z,26.0630,-83.0730,78.92,1111122 
COMPS,ioos:station:USF.COMPS:C13:1,2017-05-04T12:05:00Z,26.0630,-83.0730,77.89,1111122 
COMPS,ioos:station:USF.COMPS:C13:1,2017-05-04T12:35:00Z,26.0630,-83.0730,78.49,1111122 
COMPS,ioos:station:USF.COMPS:C13:1,2017-05-04T13:05:00Z,26.0630,-83.0730,78.94,1111122 
COMPS,ioos:station:USF.COMPS:C13:1,2017-05-04T13:35:00Z,26.0630,-83.0730,79.32,1111122 
COMPS,ioos:station:USF.COMPS:C13:1,2017-05-04T14:05:00Z,26.0630,-83.0730,80.54,1111122 
COMPS,ioos:station:USF.COMPS:C13:1,2017-05-04T14:35:00Z,26.0630,-83.0730,80.45,1111122 
COMPS,ioos:station:USF.COMPS:C13:1,2017-05-04T15:05:00Z,26.0630,-83.0730,80.87,1111122 
COMPS,ioos:station:USF.COMPS:C13:1,2017-05-04T15:35:00Z,26.0630,-83.0730,78.94,1111122 
COMPS,ioos:station:USF.COMPS:C13:1,2017-05-04T16:05:00Z,26.0630,-83.0730,79.21,1111122 
COMPS,ioos:station:USF.COMPS:C13:1,2017-05-04T16:35:00Z,26.0630,-83.0730,79.79,1111122 
COMPS,ioos:station:USF.COMPS:C13:1,2017-05-04T17:05:00Z,26.0630,-83.0730,79.37,1111122 
COMPS,ioos:station:USF.COMPS:C13:1,2017-05-04T17:35:00Z,26.0630,-83.0730,80.1,1111122 
COMPS,ioos:station:USF.COMPS:C13:1,2017-05-04T18:05:00Z,26.0630,-83.0730,79.89,1111122 
COMPS,ioos:station:USF.COMPS:C13:1,2017-05-04T18:35:00Z,26.0630,-83.0730,80.46,1111122 
COMPS,ioos:station:USF.COMPS:C13:1,2017-05-04T19:05:00Z,26.0630,-83.0730,80.36,1111122 
COMPS,ioos:station:USF.COMPS:C13:1,2017-05-04T19:35:00Z,26.0630,-83.0730,79.74,1111122 
COMPS,ioos:station:USF.COMPS:C13:1,2017-05-04T20:05:00Z,26.0630,-83.0730,79.84,1111122 
COMPS,ioos:station:USF.COMPS:C13:1,2017-05-04T20:35:00Z,26.0630,-83.0730,80.95,1111122 
COMPS,ioos:station:USF.COMPS:C13:1,2017-05-04T21:05:00Z,26.0630,-83.0730,81.53,1111122 
COMPS,ioos:station:USF.COMPS:C13:1,2017-05-04T21:35:00Z,26.0630,-83.0730,81.84,1111122 
COMPS,ioos:station:USF.COMPS:C13:1,2017-05-04T22:05:00Z,26.0630,-83.0730,82.25,1111122 
COMPS,ioos:station:USF.COMPS:C13:1,2017-05-04T22:35:00Z,26.0630,-83.0730,83.1,1111122 
COMPS,ioos:station:USF.COMPS:C13:1,2017-05-04T23:05:00Z,26.0630,-83.0730,84.12,1111122 
COMPS,ioos:station:USF.COMPS:C13:1,2017-05-04T23:35:00Z,26.0630,-83.0730,84.18,1111122 
COMPS,ioos:station:USF.COMPS:C13:1,2017-05-05T00:05:00Z,26.0630,-83.0730,78.86,1111122 
COMPS,ioos:station:USF.COMPS:C13:1,2017-05-05T00:35:00Z,26.0630,-83.0730,78.77,1111122 
COMPS,ioos:station:USF.COMPS:C13:1,2017-05-05T01:05:00Z,26.0630,-83.0730,80.93,1111122 
COMPS,ioos:station:USF.COMPS:C13:1,2017-05-05T01:35:00Z,26.0630,-83.0730,82.68,1111122 
COMPS,ioos:station:USF.COMPS:C13:1,2017-05-05T02:05:00Z,26.0630,-83.0730,83.09,1111122 
COMPS,ioos:station:USF.COMPS:C13:1,2017-05-05T02:35:00Z,26.0630,-83.0730,77.3,1111122 
COMPS,ioos:station:USF.COMPS:C13:1,2017-05-05T03:05:00Z,26.0630,-83.0730,79.05,1111122 
COMPS,ioos:station:USF.COMPS:C13:1,2017-05-05T03:35:00Z,26.0630,-83.0730,80.98,1111122 
COMPS,ioos:station:USF.COMPS:C13:1,2017-05-05T04:05:00Z,26.0630,-83.0730,80.38,1111122 
COMPS,ioos:station:USF.COMPS:C13:1,2017-05-05T04:35:00Z,26.0630,-83.0730,80.18,1111122 
COMPS,ioos:station:USF.COMPS:C13:1,2017-05-05T05:05:00Z,26.0630,-83.0730,81.26,1111122 
COMPS,ioos:station:USF.COMPS:C13:1,2017-05-05T05:35:00Z,26.0630,-83.0730,84.04,1111122 
COMPS,ioos:station:USF.COMPS:C13:1,2017-05-05T06:05:00Z,26.0630,-83.0730,77.28,1111122 
COMPS,ioos:station:USF.COMPS:C13:1,2017-05-05T06:35:00Z,26.0630,-83.0730,80.75,1111122 
COMPS,ioos:station:USF.COMPS:C13:1,2017-05-05T07:05:00Z,26.0630,-83.0730,77.48,1111122 
COMPS,ioos:station:USF.COMPS:C13:1,2017-05-05T07:35:00Z,26.0630,-83.0730,79.44,1111122 
COMPS,ioos:station:USF.COMPS:C13:1,2017-05-05T08:05:00Z,26.0630,-83.0730,75.54,1111122 
COMPS,ioos:station:USF.COMPS:C13:1,2017-05-05T08:35:00Z,26.0630,-83.0730,79.33,1111122 
COMPS,ioos:station:USF.COMPS:C13:1,2017-05-05T09:05:00Z,26.0630,-83.0730,76.62,1111122 
COMPS,ioos:station:USF.COMPS:C13:1,2017-05-05T09:35:00Z,26.0630,-83.0730,77.92,1111122 
COMPS,ioos:station:USF.COMPS:C13:1,2017-05-05T10:05:00Z,26.0630,-83.0730,73.97,1111122 
COMPS,ioos:station:USF.COMPS:C13:1,2017-05-05T10:35:00Z,26.0630,-83.0730,82.1,1111122 
COMPS,ioos:station:USF.COMPS:C13:1,2017-05-05T11:05:00Z,26.0630,-83.0730,83.92,1111122 
COMPS,ioos:station:USF.COMPS:C13:1,2017-05-05T11:35:00Z,26.0630,-83.0730,78.3,1111122 
COMPS,ioos:station:USF.COMPS:C13:1,2017-05-05T12:05:00Z,26.0630,-83.0730,73.57,1111122 
COMPS,ioos:station:USF.COMPS:C13:1,2017-05-05T12:35:00Z,26.0630,-83.0730,73.91,1111122 
COMPS,ioos:station:USF.COMPS:C13:1,2017-05-05T13:05:00Z,26.0630,-83.0730,71.82,1111122 
COMPS,ioos:station:USF.COMPS:C13:1,2017-05-05T13:35:00Z,26.0630,-83.0730,70.73,1111122 
COMPS,ioos:station:USF.COMPS:C13:1,2017-05-05T14:05:00Z,26.0630,-83.0730,68.72,1111122 
COMPS,ioos:station:USF.COMPS:C13:1,2017-05-05T14:35:00Z,26.0630,-83.0730,68.66,1111122 
COMPS,ioos:station:USF.COMPS:C13:1,2017-05-05T15:05:00Z,26.0630,-83.0730,67.2,1111122 
COMPS,ioos:station:USF.COMPS:C13:1,2017-05-05T15:35:00Z,26.0630,-83.0730,68.66,1111122 
COMPS,ioos:station:USF.COMPS:C13:1,2017-05-05T16:05:00Z,26.0630,-83.0730,69.5,1111122 
COMPS,ioos:station:USF.COMPS:C13:1,2017-05-05T16:35:00Z,26.0630,-83.0730,70.88,1111122 
COMPS,ioos:station:USF.COMPS:C13:1,2017-05-05T17:05:00Z,26.0630,-83.0730,70.32,1111122 
COMPS,ioos:station:USF.COMPS:C13:1,2017-05-05T17:35:00Z,26.0630,-83.0730,68.74,1111122 
COMPS,ioos:station:USF.COMPS:C13:1,2017-05-05T18:05:00Z,26.0630,-83.0730,66.23,1111122 
COMPS,ioos:station:USF.COMPS:C13:1,2017-05-05T18:35:00Z,26.0630,-83.0730,65.79,1111122 
COMPS,ioos:station:USF.COMPS:C13:1,2017-05-05T19:05:00Z,26.0630,-83.0730,65.96,1111122 
COMPS,ioos:station:USF.COMPS:C13:1,2017-05-05T19:35:00Z,26.0630,-83.0730,65.09,1111122 
COMPS,ioos:station:USF.COMPS:C13:1,2017-05-05T20:05:00Z,26.0630,-83.0730,63.33,1111122 
COMPS,ioos:station:USF.COMPS:C13:1,2017-05-05T20:35:00Z,26.0630,-83.0730,63.81,1111122 
COMPS,ioos:station:USF.COMPS:C13:1,2017-05-05T21:05:00Z,26.0630,-83.0730,61.76,1111122 
COMPS,ioos:station:USF.COMPS:C13:1,2017-05-05T21:35:00Z,26.0630,-83.0730,59.0,1111122 
COMPS,ioos:station:USF.COMPS:C13:1,2017-05-05T22:05:00Z,26.0630,-83.0730,55.59,1111122 
COMPS,ioos:station:USF.COMPS:C13:1,2017-05-05T22:35:00Z,26.0630,-83.0730,55.63,1111122 
COMPS,ioos:station:USF.COMPS:C13:1,2017-05-05T23:05:00Z,26.0630,-83.0730,56.61,1111122 
COMPS,ioos:station:USF.COMPS:C13:1,2017-05-05T23:35:00Z,26.0630,-83.0730,52.89,1111122 
COMPS,ioos:station:USF.COMPS:C13:1,2017-05-06T00:05:00Z,26.0630,-83.0730,54.5,1111122 
COMPS,ioos:station:USF.COMPS:C13:1,2017-05-06T00:35:00Z,26.0630,-83.0730,55.68,1111122 
COMPS,ioos:station:USF.COMPS:C13:1,2017-05-06T01:05:00Z,26.0630,-83.0730,56.88,1111122 
COMPS,ioos:station:USF.COMPS:C13:1,2017-05-06T01:35:00Z,26.0630,-83.0730,56.88,1111122 
COMPS,ioos:station:USF.COMPS:C13:1,2017-05-06T02:05:00Z,26.0630,-83.0730,58.88,1111122 
COMPS,ioos:station:USF.COMPS:C13:1,2017-05-06T02:35:00Z,26.0630,-83.0730,60.85,1111122 
COMPS,ioos:station:USF.COMPS:C13:1,2017-05-06T03:05:00Z,26.0630,-83.0730,64.6,1111122 
COMPS,ioos:station:USF.COMPS:C13:1,2017-05-06T03:35:00Z,26.0630,-83.0730,61.18,1111122 
COMPS,ioos:station:USF.COMPS:C13:1,2017-05-06T04:05:00Z,26.0630,-83.0730,60.09,1111122 
COMPS,ioos:station:USF.COMPS:C13:1,2017-05-06T04:35:00Z,26.0630,-83.0730,55.97,1111122 
COMPS,ioos:station:USF.COMPS:C13:1,2017-05-06T05:05:00Z,26.0630,-83.0730,51.99,1111122 
COMPS,ioos:station:USF.COMPS:C13:1,2017-05-06T05:35:00Z,26.0630,-83.0730,55.19,1111122 
COMPS,ioos:station:USF.COMPS:C13:1,2017-05-06T06:05:00Z,26.0630,-83.0730,52.41,1111122 
COMPS,ioos:station:USF.COMPS:C13:1,2017-05-06T06:35:00Z,26.0630,-83.0730,53.66,1111122 
COMPS,ioos:station:USF.COMPS:C13:1,2017-05-06T07:05:00Z,26.0630,-83.0730,57.64,1111122 
COMPS,ioos:station:USF.COMPS:C13:1,2017-05-06T07:35:00Z,26.0630,-83.0730,64.73,1111122 
COMPS,ioos:station:USF.COMPS:C13:1,2017-05-06T08:05:00Z,26.0630,-83.0730,62.53,1111122 
COMPS,ioos:station:USF.COMPS:C13:1,2017-05-06T08:35:00Z,26.0630,-83.0730,62.01,1111122 
COMPS,ioos:station:USF.COMPS:C13:1,2017-05-06T09:05:00Z,26.0630,-83.0730,60.71,1111122 
COMPS,ioos:station:USF.COMPS:C13:1,2017-05-06T09:35:00Z,26.0630,-83.0730,57.45,1111122 
COMPS,ioos:station:USF.COMPS:C13:1,2017-05-06T10:05:00Z,26.0630,-83.0730,58.26,1111122 
COMPS,ioos:station:USF.COMPS:C13:1,2017-05-06T10:35:00Z,26.0630,-83.0730,58.06,1111122 
COMPS,ioos:station:USF.COMPS:C13:1,2017-05-06T11:05:00Z,26.0630,-83.0730,56.57,1111122 
COMPS,ioos:station:USF.COMPS:C13:1,2017-05-06T11:35:00Z,26.0630,-83.0730,55.26,1111122 
COMPS,ioos:station:USF.COMPS:C13:1,2017-05-06T12:05:00Z,26.0630,-83.0730,55.04,1111122 
COMPS,ioos:station:USF.COMPS:C13:1,2017-05-06T12:35:00Z,26.0630,-83.0730,55.06,1111122 
COMPS,ioos:station:USF.COMPS:C13:1,2017-05-06T13:05:00Z,26.0630,-83.0730,54.61,1111122 
COMPS,ioos:station:USF.COMPS:C13:1,2017-05-06T13:35:00Z,26.0630,-83.0730,54.24,1111122 
COMPS,ioos:station:USF.COMPS:C13:1,2017-05-06T14:05:00Z,26.0630,-83.0730,54.38,1111122 
COMPS,ioos:station:USF.COMPS:C13:1,2017-05-06T14:35:00Z,26.0630,-83.0730,55.19,1111122 
COMPS,ioos:station:USF.COMPS:C13:1,2017-05-06T15:05:00Z,26.0630,-83.0730,54.85,1111122 
COMPS,ioos:station:USF.COMPS:C13:1,2017-05-06T15:35:00Z,26.0630,-83.0730,55.3,1111122 
COMPS,ioos:station:USF.COMPS:C13:1,2017-05-06T16:05:00Z,26.0630,-83.0730,53.85,1111122 
COMPS,ioos:station:USF.COMPS:C13:1,2017-05-06T16:35:00Z,26.0630,-83.0730,54.51,1111122 